Starlink 32323

operational
NORAD ID: 61677 Int'l Des: 2024-193 Owner: SPXS Country: US Constellation: starlink
LEOCIRCULAR

About Starlink 32323

Description loading...

Live Position

Loading 3D Globe...

Upcoming Passes

Altitude History

Altitude vs Time

uPlot chart will show altitude changes over time

Two-Line Element Set

1 61677U 24193S 25259.18971072 -.00000343 00000-0 53081-6 0 9998
2 61677 53.1596 181.2738 0001274 92.7522 267.3624 15.30186412 49812
Epoch: Sep 16, 2025 • Age: 7 hours

Current Status

Altitude 484.2 km
Velocity 7.62 km/s
Sub-Earth Point -28.22°S, 148.68°W
Launch Date Oct 26, 2024
Age 0.8 years
Type internet

Technical Details

Classification Payload
Mass 730.00 kg
Dry Mass 700.00 kg
Total Mass 730.00 kg
Length 0.30 m
Diameter 4.10 m
Span 29.00 m
Shape Box + pan
Manufacturer SPXS
Bus Type Starlink V2M
Phase Status In Orbit
Owner/State SPXS/US

Large Constellations

Loading constellations...